[[{"header":{"parameterUnit":"m.s-1","parameterCategory":1,"la1":30.2991,"la2":30.254,"lo1":-89.0895,"lo2":-89.0444,"dy":0.0017,"dx":0.0017,"nx":28,"ny":28,"refTime":"2025-03-22T03:00:00:Z","depth":0,"parameterNumber":2,"parameterNumberName":"U-component_of_WINDS"},"data":[0,0,0,0,0,0,0,0,0,0,0,0,0,0,0,0,0,0,0,0,0,0,0,0,0,0,0,0,0,0,0,0,0,0,0,0,0,0,0,0,0,0,0,0,0,0,0,0,0,0,0,0,0,0,0,0,0,0,-1.685,-1.685,0,-1.6906,-1.6907,-1.6907,-1.6924,-1.6923,-1.6923,-1.6923,-1.6981,-1.6983,-1.6984,0,0,0,0,0,0,0,0,0,0,0,0,0,-1.6757,-1.6759,-1.685,-1.685,-1.6851,-1.6906,-1.6907,-1.6908,-1.6924,-1.6923,-1.6923,-1.6923,-1.698,-1.6982,-1.6985,0,0,0,0,0,0,0,0,0,0,0,0,0,-1.6804,-1.6759,-1.685,-1.6866,-1.6868,-1.6906,-1.6907,-1.6908,-1.6924,-1.6923,-1.6923,-1.6923,-1.6979,-1.6982,-1.6985,-1.7011,0,0,-1.6993,-1.6994,0,0,0,0,0,0,0,0,-1.6801,-1.6807,-1.6863,-1.6865,-1.6867,-1.6907,-1.6895,-1.6942,-1.6924,-1.6903,-1.6923,-1.6922,-1.6957,-1.6961,-1.6973,-1.7013,-1.7016,-1.6993,-1.6995,-1.6996,-1.6997,0,0,0,0,0,0,0,-1.6798,-1.6805,-1.6872,-1.6864,-1.6866,-1.6871,-1.6877,-1.6904,-1.6932,-1.6904,-1.6906,-1.6912,-1.6958,-1.697,-1.6974,-1.7017,-1.6993,-1.6996,-1.6997,-1.6999,-1.7081,-1.7082,0,0,0,0,0,0,-1.6792,-1.6802,-1.687,-1.6874,-1.6832,-1.6873,-1.6879,-1.6895,-1.6931,-1.6936,-1.6913,-1.6913,-1.6966,-1.6971,-1.6976,-1.7009,-1.6996,-1.6999,-1.7,-1.7081,-1.7081,-1.7082,0,0,0,0,0,0,-1.679,-1.6798,-1.6868,-1.6838,-1.6848,-1.6875,-1.6892,-1.6896,-1.6909,-1.6937,-1.6942,-1.692,-1.6966,-1.6973,-1.7002,-1.7011,-1.7,-1.7002,-1.708,-1.7081,-1.7082,-1.7074,0,0,0,0,0,0,-1.6787,-1.6797,-1.6807,-1.6838,-1.6849,-1.6892,-1.6893,-1.6898,-1.6913,-1.6914,-1.6946,-1.6951,-1.6966,-1.6998,-1.7005,-1.7015,-1.7005,-1.7079,-1.7081,-1.7082,-1.7074,-1.7075,-1.7075,0,0,0,0,0,-1.6783,-1.6802,-1.6807,-1.6815,-1.6862,-1.6893,-1.6899,-1.6916,-1.6914,-1.6924,-1.6943,-1.695,-1.7009,-1.7001,-1.7009,-1.702,-1.7079,-1.708,-1.7081,-1.7073,-1.7074,-1.7075,0,0,0,0,0,0,-1.6771,-1.6807,-1.6812,-1.6842,-1.6864,-1.6896,-1.6909,-1.6917,-1.694,-1.694,-1.696,-1.6967,-1.6995,-1.7011,-1.7,-1.7047,-1.7044,-1.7047,-1.7035,-1.7037,-1.7038,-1.7033,-1.7007,0,0,0,0,0,-1.6772,-1.6794,-1.6824,-1.6847,-1.6858,-1.6882,-1.6896,-1.6907,-1.6931,-1.694,-1.6961,-1.6984,-1.7008,-1.7023,-1.7047,-1.7076,-1.7083,-1.7088,-1.7089,-1.7089,-1.7091,-1.7108,-1.711,-1.7086,-1.7086,-1.7086,0,0,-1.6774,-1.6796,-1.6809,-1.6845,-1.6864,-1.6886,-1.6889,-1.6913,-1.693,-1.6944,-1.6973,-1.6989,-1.7016,-1.7045,-1.7059,-1.7059,-1.7099,-1.7091,-1.7091,-1.7093,-1.7109,-1.7111,-1.7113,-1.7087,-1.7087,-1.7087,0,0,-1.6788,-1.6807,-1.6829,-1.6847,-1.6875,-1.6891,-1.6896,-1.6926,-1.6937,-1.6967,-1.6978,-1.6998,-1.7039,-1.7058,-1.7073,-1.7095,-1.7102,-1.7102,-1.7106,-1.7122,-1.7124,-1.7126,-1.7133,-1.7135,-1.7104,-1.7104,-1.7104,0,-1.6787,-1.6821,-1.6839,-1.6862,-1.6878,-1.6892,-1.6913,-1.6931,-1.6965,-1.6976,-1.6975,-1.7026,-1.7046,-1.7079,-1.7085,-1.7097,-1.7103,-1.7098,-1.7122,-1.7124,-1.7126,-1.7133,-1.7136,-1.7104,-1.7104,-1.7104,-1.7104,0,-1.6818,-1.6841,-1.6855,-1.6887,-1.6905,-1.6927,-1.6949,-1.6964,-1.6974,-1.699,-1.702,-1.7043,-1.7072,-1.7081,-1.7091,-1.7116,-1.7115,-1.7118,-1.7116,-1.7128,-1.7135,-1.7138,-1.7104,-1.7104,-1.7104,-1.7104,0,0,-1.6825,-1.6868,-1.6872,-1.6887,-1.6919,-1.6938,-1.6961,-1.6989,-1.7002,-1.7025,-1.7045,-1.7079,-1.7082,-1.7099,-1.7111,-1.7125,-1.7141,-1.7126,-1.7127,-1.7128,-1.717,-1.7167,-1.717,-1.7146,-1.7147,-1.7147,-1.7167,0,-1.6844,-1.6885,-1.6902,-1.6935,-1.6957,-1.6971,-1.6991,-1.7013,-1.7028,-1.7049,-1.7066,-1.709,-1.7092,-1.7103,-1.7117,-1.7136,-1.7149,-1.7135,-1.7164,-1.7165,-1.7156,-1.7174,-1.7171,-1.7189,-1.717,-1.7171,-1.7171,0,-1.687,-1.6893,-1.6929,-1.6958,-1.6968,-1.6986,-1.7012,-1.7032,-1.7058,-1.7068,-1.7087,-1.7098,-1.7123,-1.712,-1.7155,-1.7144,-1.7158,-1.7169,-1.717,-1.7173,-1.7168,-1.7177,-1.7195,-1.7198,-1.7176,-1.7176,-1.7175,0,-1.6872,-1.6912,-1.6938,-1.6951,-1.6986,-1.6998,-1.7013,-1.7038,-1.7053,-1.7077,-1.7088,-1.7114,-1.7128,-1.7148,-1.7167,-1.7163,-1.72,-1.7198,-1.7209,-1.7208,-1.7215,-1.7214,-1.7235,-1.7225,-1.7225,-1.7225,-1.7224,0,-1.689,-1.6911,-1.6939,-1.6956,-1.698,-1.6999,-1.7023,-1.7039,-1.7061,-1.708,-1.7094,-1.7113,-1.7136,-1.7157,-1.7172,-1.7198,-1.7205,-1.7214,-1.7217,-1.7212,-1.7211,-1.7221,-1.722,-1.7225,-1.7225,-1.7225,-1.7225,0,-1.6896,-1.6916,-1.6945,-1.6976,-1.6984,-1.7,-1.7027,-1.7043,-1.7059,-1.7084,-1.7091,-1.7116,-1.7142,-1.7163,-1.7196,-1.7206,-1.7234,-1.7238,-1.7225,-1.7227,-1.7236,-1.7235,-1.7264,-1.7268,-1.7255,-1.7255,-1.7255,0,-1.6906,-1.6922,-1.6954,-1.6968,-1.6983,-1.7006,-1.7022,-1.7042,-1.7058,-1.7088,-1.7101,-1.7127,-1.715,-1.719,-1.7212,-1.7238,-1.7243,-1.7251,-1.7246,-1.7241,-1.7242,-1.7241,-1.7242,-1.7251,-1.7251,-1.7251,-1.7251,0,-1.6921,-1.693,-1.6952,-1.6978,-1.6997,-1.7018,-1.704,-1.7051,-1.7075,-1.7092,-1.7118,-1.7136,-1.717,-1.7197,-1.7225,-1.7241,-1.725,-1.7253,-1.7256,-1.7251,-1.7243,-1.7247,-1.7226,-1.7252,-1.7252,-1.7252,-1.7252,-1.7252,-1.6929,-1.6944,-1.6969,-1.6994,-1.7012,-1.7032,-1.7049,-1.7067,-1.7089,-1.7118,-1.7129,-1.7156,-1.7181,-1.722,-1.7236,-1.7258,-1.7258,-1.7264,-1.7265,-1.7266,-1.7265,-1.724,-1.7263,-1.7263,-1.7263,-1.7263,-1.7263,0,-1.6945,-1.6962,-1.6984,-1.7014,-1.7033,-1.704,-1.7064,-1.708,-1.7103,-1.7126,-1.7147,-1.7178,-1.7203,-1.7227,-1.7254,-1.7267,-1.7272,-1.7273,-1.7272,-1.7276,-1.7263,-1.7257,-1.7269,-1.7269,-1.7269,-1.7269,-1.7269,-1.7269,-1.6955,-1.6981,-1.6993,-1.7028,-1.7045,-1.7071,-1.7085,-1.7103,-1.7121,-1.7154,-1.7176,-1.7191,-1.7214,-1.7242,-1.7266,-1.7273,-1.7282,-1.7282,-1.7289,-1.7277,-1.7276,-1.7276,-1.727,-1.7284,-1.7284,-1.73,-1.73,-1.73]},{"header":{"parameterUnit":"m.s-1","parameterCategory":1,"la1":30.2991,"la2":30.254,"lo1":-89.0895,"lo2":-89.0444,"dy":0.0017,"dx":0.0017,"nx":28,"ny":28,"refTime":"2025-03-22T03:00:00:Z","depth":0,"parameterNumber":3,"parameterNumberName":"V-component_of_WINDS"},"data":[0,0,0,0,0,0,0,0,0,0,0,0,0,0,0,0,0,0,0,0,0,0,0,0,0,0,0,0,0,0,0,0,0,0,0,0,0,0,0,0,0,0,0,0,0,0,0,0,0,0,0,0,0,0,0,0,0,0,5.3731,5.3732,0,5.3867,5.3869,5.387,5.3865,5.3863,5.3861,5.386,5.3992,5.3998,5.4003,0,0,0,0,0,0,0,0,0,0,0,0,0,5.346,5.3465,5.3731,5.3732,5.3734,5.3867,5.3869,5.3871,5.3866,5.3863,5.3861,5.3859,5.3991,5.3997,5.4003,0,0,0,0,0,0,0,0,0,0,0,0,0,5.3585,5.3466,5.373,5.3748,5.3751,5.3866,5.3869,5.3871,5.3866,5.3863,5.386,5.3858,5.3989,5.3996,5.4004,5.411,0,0,5.4028,5.4032,0,0,0,0,0,0,0,0,5.3578,5.3595,5.3744,5.3747,5.375,5.3846,5.3822,5.3951,5.3867,5.3822,5.386,5.3856,5.3946,5.3957,5.3989,5.4116,5.4121,5.4029,5.4034,5.4037,5.404,0,0,0,0,0,0,0,5.3569,5.3589,5.3784,5.3746,5.375,5.3747,5.3761,5.3846,5.3898,5.3826,5.3826,5.3842,5.3947,5.3981,5.3992,5.4123,5.4029,5.4036,5.4041,5.4044,5.4344,5.4347,0,0,0,0,0,0,5.3557,5.3581,5.378,5.3788,5.3655,5.3754,5.377,5.3818,5.3897,5.3906,5.3845,5.3841,5.3969,5.3982,5.3996,5.4125,5.4037,5.4045,5.4049,5.4341,5.4344,5.4348,0,0,0,0,0,0,5.3552,5.3575,5.3775,5.3685,5.371,5.3762,5.3815,5.3822,5.3856,5.3911,5.392,5.387,5.3967,5.3985,5.4082,5.413,5.4048,5.4056,5.4337,5.4342,5.4346,5.4383,0,0,0,0,0,0,5.3544,5.3573,5.3615,5.3686,5.3715,5.386,5.3818,5.3827,5.3871,5.3868,5.3938,5.3946,5.3966,5.407,5.409,5.4139,5.4062,5.4333,5.4339,5.4345,5.4378,5.4389,5.4398,0,0,0,0,0,5.3534,5.3619,5.3617,5.3641,5.3769,5.3863,5.3879,5.3902,5.3875,5.3917,5.3952,5.3944,5.4121,5.408,5.4102,5.4155,5.433,5.4337,5.4344,5.4374,5.4387,5.4398,0,0,0,0,0,0,5.355,5.3628,5.3628,5.3738,5.3794,5.3862,5.3915,5.3915,5.3979,5.3973,5.3997,5.4013,5.411,5.4142,5.4094,5.4261,5.4222,5.4234,5.4237,5.4249,5.4259,5.425,5.4068,0,0,0,0,0,5.3566,5.3638,5.3702,5.3793,5.3822,5.3864,5.3905,5.3919,5.3976,5.3999,5.4042,5.4096,5.4164,5.4208,5.4274,5.4383,5.4397,5.4429,5.4439,5.4447,5.4457,5.4517,5.4532,5.4372,5.4372,5.4371,0,0,5.3601,5.3652,5.3696,5.3798,5.3843,5.3914,5.3883,5.3961,5.4014,5.401,5.4105,5.4138,5.42,5.4304,5.4351,5.4333,5.4505,5.4456,5.4462,5.4468,5.4526,5.4541,5.4555,5.4376,5.4376,5.4375,0,0,5.37,5.3747,5.3829,5.3875,5.3944,5.3972,5.3991,5.4059,5.4082,5.4178,5.4177,5.4239,5.4356,5.4401,5.4439,5.4556,5.4551,5.4576,5.4628,5.4686,5.4699,5.471,5.4752,5.4766,5.4586,5.4586,5.4586,0,5.3734,5.3844,5.387,5.3948,5.3993,5.3995,5.4077,5.4119,5.4206,5.4235,5.4214,5.4362,5.4403,5.4518,5.4546,5.4577,5.4599,5.4568,5.4695,5.4707,5.4718,5.4758,5.4773,5.4588,5.4588,5.4588,5.4588,0,5.3882,5.3958,5.4015,5.4102,5.4152,5.4231,5.4267,5.4315,5.4324,5.4353,5.445,5.4501,5.4577,5.4605,5.4613,5.472,5.4707,5.469,5.4652,5.4735,5.4773,5.4789,5.4592,5.4591,5.4591,5.459,0,0,5.3995,5.4095,5.4116,5.4155,5.4232,5.429,5.4369,5.4446,5.4486,5.4545,5.4611,5.471,5.4696,5.4739,5.4752,5.4803,5.4893,5.478,5.4782,5.4799,5.5013,5.5026,5.5043,5.489,5.4893,5.4895,5.5008,0,5.4103,5.4246,5.4271,5.4395,5.4466,5.447,5.4538,5.4591,5.4621,5.4683,5.4714,5.4784,5.476,5.4786,5.4837,5.4871,5.4936,5.4863,5.495,5.4953,5.4935,5.5063,5.5076,5.518,5.5023,5.5026,5.5028,0,5.4248,5.4314,5.4446,5.4514,5.4544,5.4606,5.4678,5.4738,5.4798,5.4816,5.4865,5.4872,5.4952,5.491,5.5021,5.4971,5.5007,5.503,5.5034,5.5043,5.4995,5.5076,5.5214,5.523,5.5051,5.5049,5.5048,0,5.4318,5.4439,5.4534,5.4567,5.4648,5.4692,5.4727,5.4784,5.4829,5.4891,5.4921,5.499,5.5029,5.5082,5.5107,5.5074,5.5216,5.5176,5.5232,5.5231,5.5261,5.5259,5.5408,5.5285,5.5285,5.5284,5.5284,0,5.4436,5.4517,5.4566,5.4625,5.4715,5.4742,5.4829,5.4863,5.4915,5.4978,5.4984,5.5043,5.5073,5.5136,5.5156,5.5245,5.5261,5.5277,5.5281,5.5277,5.5275,5.5301,5.5295,5.5288,5.5288,5.5287,5.5286,0,5.4529,5.4566,5.467,5.4739,5.4758,5.4821,5.4879,5.4935,5.4964,5.5045,5.5065,5.511,5.5184,5.5215,5.5306,5.5319,5.5421,5.5419,5.5401,5.5403,5.5457,5.5452,5.5628,5.5653,5.5513,5.5514,5.5515,0,5.4603,5.4665,5.4742,5.4786,5.4824,5.4894,5.4941,5.4969,5.5016,5.509,5.5136,5.5212,5.5273,5.5392,5.5431,5.5501,5.5501,5.5558,5.5511,5.5505,5.5502,5.5498,5.5505,5.5567,5.5568,5.5569,5.557,0,5.4729,5.4744,5.4812,5.4887,5.4942,5.5001,5.5059,5.5094,5.5131,5.5184,5.5261,5.5309,5.5403,5.5477,5.5549,5.5583,5.5583,5.5585,5.5601,5.5597,5.5585,5.5593,5.5425,5.5581,5.558,5.5579,5.5578,5.5578,5.4815,5.4871,5.4934,5.5009,5.5056,5.511,5.5166,5.5203,5.5269,5.5349,5.5361,5.5444,5.5501,5.5598,5.5635,5.5699,5.5684,5.5708,5.5714,5.572,5.5724,5.5575,5.5712,5.5712,5.5711,5.5711,5.5711,0,5.4942,5.4983,5.5052,5.5134,5.5192,5.5189,5.5252,5.5301,5.5375,5.543,5.5491,5.558,5.5652,5.5697,5.577,5.5812,5.5814,5.583,5.5827,5.5835,5.5733,5.5711,5.5827,5.5827,5.5827,5.5827,5.5827,5.5827,5.5015,5.511,5.5132,5.5249,5.5289,5.5372,5.5409,5.5458,5.5502,5.5602,5.5663,5.5693,5.5744,5.582,5.5885,5.5896,5.5923,5.594,5.595,5.5854,5.5842,5.5831,5.5811,5.5946,5.5946,5.6047,5.6048,5.6049]}]]